Location: Treviso
(45.6669°N, 12.2430°E)
Time: 00:30:17
(UTC+02:00)

ISS - Visible Passes

Search period start: 25 July 2017 00:00
Search period end: 04 August 2017 00:00
Orbit: 400 x 408 km, 51.6° (Epoch: 25 July)

Date Brightness Start Highest point End Pass type
(mag) Time Alt. Az. Time Alt. Az. Time Alt. Az.
25 Jul -1.9 00:08:00 10° WNW 00:10:57 31° N 00:13:55 10° NE visible
25 Jul -1.9 01:45:03 10° NW 01:48:00 31° N 01:50:57 10° ENE visible
25 Jul -4.0 03:21:28 10° WNW 03:24:45 87° SSW 03:28:01 10° ESE visible
25 Jul -2.0 04:59:02 10° W 05:00:48 14° SW 05:02:33 10° SSW visible
25 Jul -3.7 21:38:46 10° SW 21:41:56 50° SE 21:45:05 10° ENE visible
25 Jul -2.3 23:15:25 10° W 23:18:29 38° NNW 23:21:34 10° NE visible
26 Jul -1.7 00:52:38 10° WNW 00:55:30 27° N 00:56:43 21° NE visible
26 Jul -0.9 02:29:10 10° WNW 02:29:16 11° WNW 02:29:16 11° WNW visible
26 Jul -3.0 22:22:52 10° W 22:26:02 52° NNW 22:29:14 10° ENE visible
27 Jul -1.7 00:00:07 10° WNW 00:02:58 27° N 00:05:18 13° NE visible
27 Jul -1.3 01:36:51 10° NW 01:37:54 18° NW 01:37:54 18° NW visible
27 Jul -3.7 21:30:23 10° WSW 21:33:38 80° NNW 21:36:54 10° ENE visible
27 Jul -1.8 23:07:31 10° WNW 23:10:27 29° N 23:13:21 10° NE visible
28 Jul -1.9 00:44:30 10° NW 00:46:54 30° N 00:46:54 30° N visible
28 Jul -2.1 22:14:53 10° W 22:17:55 35° NNW 22:20:57 10° NE visible
28 Jul -1.8 23:52:04 10° NW 23:54:57 28° N 23:56:02 23° NE visible
29 Jul -0.8 01:28:32 10° WNW 01:28:38 11° WNW 01:28:38 11° WNW visible
29 Jul -2.7 21:22:16 10° W 21:25:25 46° NNW 21:28:35 10° NE visible
29 Jul -1.7 22:59:32 10° WNW 23:02:23 27° N 23:05:12 10° ENE visible
30 Jul -1.7 00:36:11 10° NW 00:37:49 25° NW 00:37:49 25° NW visible
30 Jul -1.8 22:06:55 10° WNW 22:09:49 28° N 22:12:42 10° NE visible
30 Jul -2.4 23:43:48 10° NW 23:46:50 35° NNE 23:47:01 34° NNE visible
31 Jul -2.0 21:14:15 10° WNW 21:17:14 32° NNW 21:20:14 10° NE visible
31 Jul -2.0 22:51:22 10° NW 22:54:17 29° N 22:56:15 16° ENE visible
01 Aug -1.3 00:27:49 10° WNW 00:28:51 19° WNW 00:28:51 19° WNW visible
01 Aug -1.9 21:58:50 10° WNW 22:01:41 27° N 22:04:32 10° ENE visible
01 Aug -2.8 23:35:25 10° WNW 23:38:06 46° NNW 23:38:06 46° NNW visible
02 Aug -2.6 22:43:00 10° NW 22:46:04 38° NNE 22:47:21 26° ENE visible
03 Aug -1.0 00:19:28 10° WNW 00:19:58 14° WNW 00:19:58 14° WNW visible
03 Aug -2.2 21:50:32 10° NW 21:53:29 31° N 21:56:27 10° ENE visible
03 Aug -2.7 23:26:58 10° WNW 23:29:15 42° WNW 23:29:15 42° WNW visible
